"Pseudo-MPEC" for P115Xwu

Created 2020 Sep 24 17:07:17 UT using Find_Orb

Click here for an explanation of pseudo-MPECs

 
 Astrometry: 
     P115Xwu  C2020 09 13RS)_Astrometry%nredacted;lVqOZS4L25/iabiclickO#=iC7UF51
     P115Xwu  C2020 09 13+;here#]n,forBsT4)K=d%,67uy\aIf@UW1GMexplanation4*AuF51
     P115Xwu  C2020 09 13oOoRU2Z,Km,+PGT@tq\+\)XKgTm#ObU^OLGXi;Nk@(a`V2Bo%NtlF51

Station data:
(F51) Pan-STARRS 1, Haleakala  (N20.707235 W156.255910)  US/Hawaii.
   Observers N. Primak, A. Schultz, S. Watters, J. Thiel, T. Goggia. Measurer
   PS1 Science Consortium. 1.8-m Ritchey-Chrétien + CCD.

Orbital elements:  P115Xwu
   Perihelion 2020 Jul 30.566567 +/- 35.4 TT = 13:35:51 (JD 2459061.066567)
Epoch 2020 Sep 13.0 TT = JDT 2459105.5   Earth MOID: 0.0109   AutoNEOCP
M  36.09739060 +/- 23               (J2000 ecliptic)
n   0.81239257 +/- 0.424            Peri.  140.57151 +/- 60
a   1.13751924 +/- 0.395            Node   165.01760 +/- 31
e   0.1035768 +/- 0.247             Incl.    0.96787 +/- 1.4
P   1.21/443.13d           H 28.0   G  0.15   U 12.2  SR
q 1.01969856 +/- 0.315    Q 1.25533992 +/- 42.5
From 3 observations 2020 Sept. 13 (54.7 min); mean residual 0".07
Residuals in arcseconds: 
200913 F51  .05+  .09-    200913 F51  .07-  .13+    200913 F51  .02+  .04-    

Ephemerides (geocentric):
Date (UTC) HH   RA              Dec         delta   r     elong  mag " sig PA
---- -- -- --  -------------   -----------  ------ ------ -----  --- ---- ---
2020 09 24 17  22 48 25.617   -12 12 54.02  .06399 1.0620 156.7 23.2  43d 172
2020 09 24 18  22 48 32.893   -12 12 30.96  .06407 1.0621 156.7 23.2  43d 172
2020 09 24 19  22 48 40.158   -12 12 07.89  .06415 1.0621 156.6 23.2  43d 172
2020 09 24 20  22 48 47.410   -12 11 44.81  .06423 1.0622 156.6 23.2  43d 172
2020 09 24 21  22 48 54.651   -12 11 21.71  .06431 1.0623 156.6 23.2  43d 172
2020 09 24 22  22 49 01.880   -12 10 58.60  .06439 1.0623 156.6 23.2  43d 172
2020 09 24 23  22 49 09.096   -12 10 35.48  .06447 1.0624 156.6 23.2  43d 172
2020 09 25 00  22 49 16.301   -12 10 12.35  .06455 1.0624 156.6 23.2  43d 172
2020 09 25 01  22 49 23.494   -12 09 49.21  .06463 1.0625 156.6 23.2  43d 172
2020 09 25 02  22 49 30.676   -12 09 26.05  .06471 1.0625 156.6 23.2  44d 172
2020 09 25 03  22 49 37.845   -12 09 02.88  .06479 1.0626 156.5 23.2  44d 172
2020 09 25 04  22 49 45.003   -12 08 39.70  .06487 1.0627 156.5 23.2  44d 172
2020 09 25 05  22 49 52.149   -12 08 16.51  .06495 1.0627 156.5 23.2  44d 172
2020 09 25 06  22 49 59.284   -12 07 53.31  .06503 1.0628 156.5 23.2  44d 172
2020 09 25 07  22 50 06.407   -12 07 30.09  .06511 1.0628 156.5 23.2  44d 172
2020 09 25 08  22 50 13.518   -12 07 06.86  .06519 1.0629 156.5 23.2  44d 172
2020 09 25 09  22 50 20.618   -12 06 43.62  .06527 1.0629 156.5 23.2  44d 172
2020 09 25 10  22 50 27.706   -12 06 20.37  .06535 1.0630 156.5 23.2  44d 172
2020 09 25 11  22 50 34.783   -12 05 57.11  .06543 1.0631 156.4 23.2  44d 172
2020 09 25 12  22 50 41.848   -12 05 33.83  .06551 1.0631 156.4 23.2  44d 172
2020 09 25 13  22 50 48.902   -12 05 10.54  .06559 1.0632 156.4 23.2  44d 172
2020 09 25 14  22 50 55.944   -12 04 47.25  .06567 1.0632 156.4 23.2  44d 172
2020 09 25 15  22 51 02.976   -12 04 23.94  .06576 1.0633 156.4 23.2  44d 172
2020 09 25 16  22 51 09.996   -12 04 00.61  .06584 1.0633 156.4 23.3  44d 172
2020 09 25 17  22 51 17.004   -12 03 37.28  .06592 1.0634 156.4 23.3  44d 172
2020 09 25 18  22 51 24.002   -12 03 13.94  .06600 1.0635 156.4 23.3  44d 172
2020 09 25 19  22 51 30.988   -12 02 50.58  .06608 1.0635 156.3 23.3  44d 172
2020 09 25 20  22 51 37.963   -12 02 27.21  .06616 1.0636 156.3 23.3  44d 172
2020 09 25 21  22 51 44.927   -12 02 03.83  .06624 1.0636 156.3 23.3  44d 172
2020 09 25 22  22 51 51.879   -12 01 40.44  .06633 1.0637 156.3 23.3  44d 172
2020 09 25 23  22 51 58.821   -12 01 17.04  .06641 1.0638 156.3 23.3  44d 172
2020 09 26 00  22 52 05.752   -12 00 53.63  .06649 1.0638 156.3 23.3  44d 172
2020 09 26 01  22 52 12.671   -12 00 30.20  .06657 1.0639 156.3 23.3  44d 172
2020 09 26 02  22 52 19.580   -12 00 06.77  .06665 1.0639 156.3 23.3  44d 172
2020 09 26 03  22 52 26.478   -11 59 43.32  .06673 1.0640 156.2 23.3  44d 172
2020 09 26 04  22 52 33.364   -11 59 19.86  .06682 1.0640 156.2 23.3  44d 172
2020 09 26 05  22 52 40.240   -11 58 56.39  .06690 1.0641 156.2 23.3  44d 172
2020 09 26 06  22 52 47.105   -11 58 32.91  .06698 1.0642 156.2 23.3  45d 172
2020 09 26 07  22 52 53.960   -11 58 09.42  .06706 1.0642 156.2 23.3  45d 172
2020 09 26 08  22 53 00.803   -11 57 45.92  .06714 1.0643 156.2 23.3  45d 172
2020 09 26 09  22 53 07.636   -11 57 22.40  .06723 1.0643 156.2 23.3  45d 172
2020 09 26 10  22 53 14.458   -11 56 58.88  .06731 1.0644 156.2 23.3  45d 172
2020 09 26 11  22 53 21.269   -11 56 35.34  .06739 1.0644 156.1 23.3  45d 172
2020 09 26 12  22 53 28.069   -11 56 11.80  .06747 1.0645 156.1 23.3  45d 172
2020 09 26 13  22 53 34.859   -11 55 48.24  .06756 1.0646 156.1 23.3  45d 172
2020 09 26 14  22 53 41.639   -11 55 24.67  .06764 1.0646 156.1 23.3  45d 172
2020 09 26 15  22 53 48.408   -11 55 01.09  .06772 1.0647 156.1 23.3  45d 172
2020 09 26 16  22 53 55.166   -11 54 37.50  .06780 1.0647 156.1 23.3  45d 172